(118084) = 5340 T-2 = 2000 UO100

Discovered at Palomar on 1973-09-25 by C. J. van Houten, I. van Houten-Groeneveld, and T. Gehrels.

Orbit

Orbit type: Main Belt

Note: WebGL enabled browser required.

epoch2024-03-31.0
epoch JD2460400.5
perihelion date2021-10-04.64611
perihelion JD2459492.14611
argument of perihelion (°)132.80986
ascending node (°)259.81162
inclination (°)8.56212
eccentricity0.0953064
perihelion distance (AU)2.7520930
Tisserand w.r.t. Jupiter3.2
ΔV w.r.t. Earth (km/sec)10.7
semimajor axis (AU)3.0420167
mean anomaly (°)168.73950
mean daily motion (°/day)0.18576410
aphelion distance (AU)3.332
period (years)5.31
P-vector [x]0.83420319
P-vector [y]0.45248335
P-vector [z]0.31522032
Q-vector [x]-0.53163224
Q-vector [y]0.81176560
Q-vector [z]0.24166872
absolute magnitude14.92
phase slope0.15
uncertainty0
referenceE2024-H18
observations used1024
oppositions19
arc length (days)18471
first opposition used1973
last opposition used2024
residual rms (arc-secs)0.67
perturbers coarse indicatorM-v
perturbers precise indicator003Ek
first observation date used1973-09-20.0
last observation date used2024-04-16.0
computer nameMPCLINUX
JD of orbit computation2456847.707497
perihelion JD uncertainty (days)1.6534E-04
argument of perihelion uncertainty (°)4.4557E-05
ascending node uncertainty (°)3.3282E-05
inclination uncertainty (°)6.0129E-06
eccentricity uncertainty 5.2333E-08
perihelion distance uncertainty (AU)1.5865E-07
Minimum Orbit Intersection Distances (in AU)
for orbit epoch: 2460400.5, reference: E2024-H18
Mercury2.4277
Venus2.03853
Earth1.768
Mars1.27923
Jupiter2.06827
Saturn6.12063
Uranus15.236
Neptune27.0921

Observations

1050 total observations over interval: 1973 09 20.21458 – 2024 02 15.616777
These data are available for download (format description).

Date (UT) J2000 RA J2000 Dec Magn Location Ref
1973 09 20.21458 00 16 43.39 +15 47 14.1   675 – Palomar Mountain MPS 16137
1973 09 20.29253 00 16 39.80 +15 46 54.8   675 – Palomar Mountain MPS 16137
1973 09 25.29375 00 12 54.45 +15 23 11.9 19.6   675 – Palomar Mountain MPS 16137
1973 09 25.35903 00 12 51.39 +15 22 50.3   675 – Palomar Mountain MPS 16137
1973 09 29.24062 00 09 54.91 +15 01 44.0   675 – Palomar Mountain MPS 16137
1973 09 29.30486 00 09 51.76 +15 01 23.1   675 – Palomar Mountain MPS 16137
1973 09 30.19722 00 09 11.43 +14 56 14.4   675 – Palomar Mountain MPS 16137
1973 09 30.35295 00 09 04.08 +14 55 19.6   675 – Palomar Mountain MPS 16137
1973 10 04.27708 00 06 09.06 +14 31 31.3   675 – Palomar Mountain MPS 16137
1973 10 04.33906 00 06 06.12 +14 31 05.4   675 – Palomar Mountain MPS 16137
1973 10 05.36632 00 05 21.39 +14 24 35.0   675 – Palomar Mountain MPS 16137
1973 10 05.42847 00 05 18.59 +14 24 11.9   675 – Palomar Mountain MPS 16137
2000 10 25.36433 04 02 36.64 +26 42 44.9 18.7   704 – Lincoln Laboratory ETS, New Mexico MPS 21669
2000 10 25.38136 04 02 36.05 +26 42 41.6 19.5   704 – Lincoln Laboratory ETS, New Mexico MPS 21669
2000 10 25.39745 04 02 35.46 +26 42 39.2 19.4   704 – Lincoln Laboratory ETS, New Mexico MPS 21669
2000 10 25.41163 04 02 35.01 +26 42 36.7 19.5   704 – Lincoln Laboratory ETS, New Mexico MPS 21669
2000 10 25.42520 04 02 34.45 +26 42 33.7 18.8   704 – Lincoln Laboratory ETS, New Mexico MPS 21669
2000 11 03.27949 03 56 39.93 +26 11 07.2 18.3   704 – Lincoln Laboratory ETS, New Mexico MPS 21669
2000 11 03.29310 03 56 39.26 +26 11 04.7 18.9   704 – Lincoln Laboratory ETS, New Mexico MPS 21669
2000 11 03.30673 03 56 38.61 +26 11 00.5 19.2   704 – Lincoln Laboratory ETS, New Mexico MPS 21669
2000 11 03.33395 03 56 37.40 +26 10 54.8 19.5   704 – Lincoln Laboratory ETS, New Mexico MPS 21669
2000 11 05.33189 03 55 05.34 +26 02 25.1 18.9   704 – Lincoln Laboratory ETS, New Mexico MPS 23120
2000 11 05.34571 03 55 04.64 +26 02 23.0 18.9   704 – Lincoln Laboratory ETS, New Mexico MPS 23120
2000 11 05.36063 03 55 03.90 +26 02 17.9 18.4   704 – Lincoln Laboratory ETS, New Mexico MPS 23120
2000 11 05.37663 03 55 03.06 +26 02 14.4 18.7   704 – Lincoln Laboratory ETS, New Mexico MPS 23120
2000 11 20.29256 03 42 20.81 +24 45 11.6 18.4   704 – Lincoln Laboratory ETS, New Mexico MPS 22707
2000 11 20.30978 03 42 19.87 +24 45 05.8 18.6   704 – Lincoln Laboratory ETS, New Mexico MPS 22707
2000 11 20.32478 03 42 19.02 +24 45 00.0 18.3   704 – Lincoln Laboratory ETS, New Mexico MPS 22707
2000 11 20.33980 03 42 18.21 +24 44 55.5 17.9   704 – Lincoln Laboratory ETS, New Mexico MPS 22707
2000 11 20.35483 03 42 17.37 +24 44 49.8 18.0   704 – Lincoln Laboratory ETS, New Mexico MPS 22707
2000 11 24.16482 03 38 57.98 +24 22 11.3 18.0 R 699 – Lowell Observatory-LONEOS MPS 23120
2000 11 24.18279 03 38 57.08 +24 22 05.6   699 – Lowell Observatory-LONEOS MPS 23120
2000 11 24.20083 03 38 56.13 +24 21 58.4   699 – Lowell Observatory-LONEOS MPS 23120
2000 11 24.21876 03 38 55.14 +24 21 52.1   699 – Lowell Observatory-LONEOS MPS 23120
2000 11 29.23103 03 34 41.54 +23 51 08.0 18.5   704 – Lincoln Laboratory ETS, New Mexico MPS 22707
2000 11 29.24684 03 34 40.74 +23 51 02.4 18.9   704 – Lincoln Laboratory ETS, New Mexico MPS 22707
2000 11 29.26347 03 34 39.91 +23 50 56.4 19.3   704 – Lincoln Laboratory ETS, New Mexico MPS 22707
2000 11 29.27933 03 34 39.06 +23 50 50.5 19.1   704 – Lincoln Laboratory ETS, New Mexico MPS 22707
2000 12 20.20721 03 21 26.85 +21 47 23.2 19.0   704 – Lincoln Laboratory ETS, New Mexico MPS 24295
2000 12 20.22253 03 21 26.46 +21 47 18.8 19.6   704 – Lincoln Laboratory ETS, New Mexico MPS 24295
2000 12 20.23846 03 21 26.00 +21 47 12.5 19.8   704 – Lincoln Laboratory ETS, New Mexico MPS 24295
2000 12 20.26897 03 21 25.26 +21 47 02.6 19.7   704 – Lincoln Laboratory ETS, New Mexico MPS 24295
2000 12 29.16883 03 18 55.37 +21 04 45.2 17.2 R 699 – Lowell Observatory-LONEOS MPS 24295
2000 12 29.19300 03 18 55.16 +21 04 37.9   699 – Lowell Observatory-LONEOS MPS 24295
2000 12 29.21719 03 18 54.90 +21 04 32.8   699 – Lowell Observatory-LONEOS MPS 24295
2000 12 29.24142 03 18 54.58 +21 04 27.0   699 – Lowell Observatory-LONEOS MPS 24295
2002 02 07.44019 09 59 56.39 +00 01 28.5 19.2   644 – Palomar Mountain/NEAT MPS 50436
2002 02 07.46574 09 59 55.15 +00 01 32.1 19.3   644 – Palomar Mountain/NEAT MPS 50436
2002 02 07.48695 09 59 54.12 +00 01 35.4 19.4   644 – Palomar Mountain/NEAT MPS 50436
2002 02 12.23231 09 56 07.88 +00 14 22.9 18.9   704 – Lincoln Laboratory ETS, New Mexico MPS 52849
2002 02 12.24655 09 56 07.19 +00 14 25.4 19.1   704 – Lincoln Laboratory ETS, New Mexico MPS 52849
2002 02 12.27524 09 56 05.76 +00 14 30.6 19.0   704 – Lincoln Laboratory ETS, New Mexico MPS 52849
2002 02 12.28946 09 56 05.07 +00 14 33.2 19.1   704 – Lincoln Laboratory ETS, New Mexico MPS 52849
2002 02 15.31860 09 53 38.15 +00 24 06.3 19.2   704 – Lincoln Laboratory ETS, New Mexico MPS 52849
2002 02 15.33296 09 53 37.51 +00 24 08.3 19.5   704 – Lincoln Laboratory ETS, New Mexico MPS 52849
2002 02 15.34744 09 53 36.76 +00 24 11.2 19.3   704 – Lincoln Laboratory ETS, New Mexico MPS 52849
2002 02 15.36187 09 53 36.03 +00 24 14.6 19.8   704 – Lincoln Laboratory ETS, New Mexico MPS 52849
2002 03 06.17989 09 39 17.78 +01 39 04.2 19.5   644 – Palomar Mountain/NEAT MPS 52849
2002 03 06.19051 09 39 17.34 +01 39 06.7 19.6   644 – Palomar Mountain/NEAT MPS 52849
2002 03 06.20101 09 39 16.90 +01 39 09.6 19.8   644 – Palomar Mountain/NEAT MPS 52849
2002 03 15.19007 09 33 55.11 +02 18 24.7 20.5   644 – Palomar Mountain/NEAT MPS 52849
2002 03 15.20057 09 33 54.76 +02 18 27.5 20.7   644 – Palomar Mountain/NEAT MPS 52849
2002 03 15.21223 09 33 54.42 +02 18 30.0 20.2   644 – Palomar Mountain/NEAT MPS 52849
2003 04 28.31608 14 17 59.74 -22 22 33.0 19.3 R 699 – Lowell Observatory-LONEOS MPS 78562
2003 04 28.32624 14 17 59.15 -22 22 28.1   699 – Lowell Observatory-LONEOS MPS 78562
2003 04 28.33630 14 17 58.63 -22 22 27.7   699 – Lowell Observatory-LONEOS MPS 78562
2003 04 28.34648 14 17 58.25 -22 22 22.8   699 – Lowell Observatory-LONEOS MPS 78562
2003 04 30.27597 14 16 27.09 -22 12 11.7   704 – Lincoln Laboratory ETS, New Mexico MPS 406707
2003 04 30.28793 14 16 26.58 -22 12 06.2   704 – Lincoln Laboratory ETS, New Mexico MPS 406707
2003 04 30.31189 14 16 25.37 -22 11 59.9   704 – Lincoln Laboratory ETS, New Mexico MPS 406707
2005 09 18.34514 01 47 17.13 +22 44 09.7 18.9 R 644 – Palomar Mountain/NEAT MPS 144504
2005 09 18.36867 01 47 16.52 +22 44 09.0 19.1 R 644 – Palomar Mountain/NEAT MPS 144504
2005 09 18.39048 01 47 15.93 +22 44 07.3 18.9 R 644 – Palomar Mountain/NEAT MPS 144504
2005 09 24.40134 01 44 23.10 +22 35 09.3 18.4 V 703 – Catalina Sky Survey MPS 142810
2005 09 24.40947 01 44 22.81 +22 35 09.6 18.5 V 703 – Catalina Sky Survey MPS 142810
2005 09 24.41758 01 44 22.56 +22 35 08.1 18.3 V 703 – Catalina Sky Survey MPS 142810
2005 09 24.42572 01 44 22.27 +22 35 07.7 18.9 V 703 – Catalina Sky Survey MPS 142810
2005 09 30.37206 01 40 49.36 +22 19 07.0 18.7 V 703 – Catalina Sky Survey MPS 144504
2005 09 30.38141 01 40 48.93 +22 19 06.5 18.4 V 703 – Catalina Sky Survey MPS 144504
2005 09 30.39073 01 40 48.64 +22 19 03.5 18.7 V 703 – Catalina Sky Survey MPS 144504
2005 09 30.40000 01 40 48.25 +22 19 01.4 18.8 V 703 – Catalina Sky Survey MPS 144504
2005 10 02.38549 01 39 29.29 +22 12 06.1 19.0 R 644 – Palomar Mountain/NEAT MPS 144504
2005 10 02.40728 01 39 28.35 +22 12 01.2 18.7 R 644 – Palomar Mountain/NEAT MPS 144504
2005 10 02.43066 01 39 27.36 +22 11 55.7 18.8 R 644 – Palomar Mountain/NEAT MPS 144504
2005 10 08.28343 01 35 16.54 +21 47 03.8 18.1 V 703 – Catalina Sky Survey MPS 144504
2005 10 08.29043 01 35 16.22 +21 47 01.3 18.1 V 703 – Catalina Sky Survey MPS 144504
2005 10 08.29745 01 35 15.86 +21 46 59.5 18.6 V 703 – Catalina Sky Survey MPS 144504
2005 10 08.30447 01 35 15.46 +21 46 57.8 18.6 V 703 – Catalina Sky Survey MPS 144504
2005 10 10.29723 01 33 45.36 +21 37 03.3 18.5 R 699 – Lowell Observatory-LONEOS MPS 144504
2005 10 10.32465 01 33 44.06 +21 36 54.6   699 – Lowell Observatory-LONEOS MPS 144504
